contact:dominique.lefevre@mio.osupytheas.fr, maurice.libes@osupytheas.fr, didier.mallarino@osupytheas.fr
Project:EMSO http://www.emso-fr.org/EMSO-France
Depth: 2436.0 m
Title:EMSO Ligure Ouest : Data MII capteur MICROCAT
DateTime_Computer,Latitude,Longitude,Temperature,Conductivity,Pressure,DateTime_Instrument
DateTime_Computer,Latitude,Longitude,degC,S m-1,dbar,DateTime_Instrument
2020-07-16T00:00:10Z,42.805,6.029,13.2983,4.60016,2470.11,2020-7-16T02:00:57Z
2020-07-16T00:03:13Z,42.805,6.029,13.2989,4.60008,2470.087,2020-7-16T02:04:00Z
2020-07-16T00:06:16Z,42.805,6.029,13.2983,4.59991,2470.087,2020-7-16T02:07:03Z
2020-07-16T00:09:20Z,42.805,6.029,13.2977,4.59999,2470.11,2020-7-16T02:10:07Z
2020-07-16T00:12:23Z,42.805,6.029,13.2981,4.59996,2470.124,2020-7-16T02:13:10Z
2020-07-16T00:15:26Z,42.805,6.029,13.2976,4.59998,2470.11,2020-7-16T02:16:13Z
2020-07-16T00:18:29Z,42.805,6.029,13.2998,4.60009,2470.11,2020-7-16T02:19:16Z
2020-07-16T00:21:33Z,42.805,6.029,13.2990,4.60021,2470.11,2020-7-16T02:22:19Z
2020-07-16T00:24:36Z,42.805,6.029,13.2984,4.60002,2470.124,2020-7-16T02:25:23Z
2020-07-16T00:27:39Z,42.805,6.029,13.2992,4.60005,2470.147,2020-7-16T02:28:26Z
2020-07-16T00:30:42Z,42.805,6.029,13.2999,4.60000,2470.124,2020-7-16T02:31:29Z
2020-07-16T00:33:46Z,42.805,6.029,13.2978,4.60002,2470.1,2020-7-16T02:34:32Z
2020-07-16T00:36:49Z,42.805,6.029,13.2979,4.60002,2470.124,2020-7-16T02:37:36Z
2020-07-16T00:39:52Z,42.805,6.029,13.2997,4.60004,2470.11,2020-7-16T02:40:39Z
2020-07-16T00:42:55Z,42.805,6.029,13.2994,4.60009,2470.124,2020-7-16T02:43:42Z
2020-07-16T00:45:59Z,42.805,6.029,13.2983,4.60002,2470.11,2020-7-16T02:46:46Z
2020-07-16T00:49:02Z,42.805,6.029,13.2982,4.60001,2470.11,2020-7-16T02:49:49Z
2020-07-16T00:52:05Z,42.805,6.029,13.2982,4.59999,2470.11,2020-7-16T02:52:52Z
2020-07-16T00:55:09Z,42.805,6.029,13.2985,4.60000,2470.087,2020-7-16T02:55:55Z
2020-07-16T00:58:12Z,42.805,6.029,13.2989,4.60003,2470.11,2020-7-16T02:58:58Z
2020-07-16T01:01:15Z,42.805,6.029,13.2987,4.59999,2470.087,2020-7-16T03:02:02Z
2020-07-16T01:04:18Z,42.805,6.029,13.2976,4.60002,2470.124,2020-7-16T03:05:05Z
2020-07-16T01:07:21Z,42.805,6.029,13.2987,4.60001,2470.124,2020-7-16T03:08:08Z
2020-07-16T01:10:25Z,42.805,6.029,13.2989,4.60002,2470.11,2020-7-16T03:11:11Z
2020-07-16T01:13:28Z,42.805,6.029,13.3011,4.60009,2470.1,2020-7-16T03:14:15Z
2020-07-16T01:16:31Z,42.805,6.029,13.2997,4.60014,2470.11,2020-7-16T03:17:18Z
2020-07-16T01:19:34Z,42.805,6.029,13.2980,4.60012,2470.1,2020-7-16T03:20:21Z
2020-07-16T01:22:38Z,42.805,6.029,13.3010,4.60011,2470.133,2020-7-16T03:23:24Z
2020-07-16T01:25:41Z,42.805,6.029,13.2995,4.60011,2470.133,2020-7-16T03:26:28Z
2020-07-16T01:28:44Z,42.805,6.029,13.2993,4.60011,2470.147,2020-7-16T03:29:31Z
2020-07-16T01:31:47Z,42.805,6.029,13.2983,4.60020,2470.133,2020-7-16T03:32:34Z
2020-07-16T01:34:50Z,42.805,6.029,13.2984,4.59991,2470.133,2020-7-16T03:35:37Z
2020-07-16T01:37:54Z,42.805,6.029,13.3001,4.60009,2470.087,2020-7-16T03:38:41Z
2020-07-16T01:40:57Z,42.805,6.029,13.2987,4.60000,2470.156,2020-7-16T03:41:44Z
2020-07-16T01:44:00Z,42.805,6.029,13.2983,4.59999,2470.11,2020-7-16T03:44:47Z
2020-07-16T01:47:03Z,42.805,6.029,13.2980,4.59994,2470.11,2020-7-16T03:47:50Z
2020-07-16T01:50:07Z,42.805,6.029,13.2990,4.60010,2470.124,2020-7-16T03:50:53Z
2020-07-16T01:53:10Z,42.805,6.029,13.2984,4.59998,2470.147,2020-7-16T03:53:57Z
2020-07-16T01:56:13Z,42.805,6.029,13.2990,4.60011,2470.133,2020-7-16T03:57:00Z
2020-07-16T01:59:16Z,42.805,6.029,13.2989,4.59997,2470.156,2020-7-16T04:00:03Z
2020-07-16T02:02:20Z,42.805,6.029,13.2979,4.59997,2470.11,2020-7-16T04:03:06Z
2020-07-16T02:05:23Z,42.805,6.029,13.3009,4.60000,2470.133,2020-7-16T04:06:10Z
2020-07-16T02:08:26Z,42.805,6.029,13.2993,4.60004,2470.133,2020-7-16T04:09:13Z
2020-07-16T02:11:29Z,42.805,6.029,13.2991,4.60003,2470.11,2020-7-16T04:12:16Z
2020-07-16T02:14:32Z,42.805,6.029,13.2989,4.60009,2470.171,2020-7-16T04:15:19Z
2020-07-16T02:17:36Z,42.805,6.029,13.2994,4.59999,2470.133,2020-7-16T04:18:22Z
2020-07-16T02:20:39Z,42.805,6.029,13.3013,4.60001,2470.147,2020-7-16T04:21:26Z
2020-07-16T02:23:42Z,42.805,6.029,13.2998,4.60009,2470.147,2020-7-16T04:24:29Z
2020-07-16T02:26:45Z,42.805,6.029,13.2992,4.60009,2470.147,2020-7-16T04:27:32Z
2020-07-16T02:29:49Z,42.805,6.029,13.2991,4.60009,2470.087,2020-7-16T04:30:35Z
2020-07-16T02:32:52Z,42.805,6.029,13.3013,4.60011,2470.156,2020-7-16T04:33:39Z
2020-07-16T02:35:55Z,42.805,6.029,13.2994,4.60009,2470.133,2020-7-16T04:36:42Z
2020-07-16T02:38:59Z,42.805,6.029,13.2999,4.60008,2470.133,2020-7-16T04:39:45Z
2020-07-16T02:42:02Z,42.805,6.029,13.2998,4.60011,2470.133,2020-7-16T04:42:49Z
2020-07-16T02:45:05Z,42.805,6.029,13.2996,4.60003,2470.133,2020-7-16T04:45:52Z
2020-07-16T02:48:08Z,42.805,6.029,13.2985,4.60003,2470.11,2020-7-16T04:48:55Z
2020-07-16T02:51:11Z,42.805,6.029,13.2993,4.60020,2470.133,2020-7-16T04:51:58Z
2020-07-16T02:54:15Z,42.805,6.029,13.2984,4.59994,2470.133,2020-7-16T04:55:02Z
2020-07-16T02:57:18Z,42.805,6.029,13.2984,4.60004,2470.11,2020-7-16T04:58:05Z
2020-07-16T03:00:21Z,42.805,6.029,13.3012,4.60010,2470.133,2020-7-16T05:01:08Z
2020-07-16T03:03:25Z,42.805,6.029,13.2983,4.59998,2470.124,2020-7-16T05:04:12Z
2020-07-16T03:06:28Z,42.805,6.029,13.2989,4.60002,2470.11,2020-7-16T05:07:15Z
2020-07-16T03:09:31Z,42.805,6.029,13.2996,4.60003,2470.1,2020-7-16T05:10:18Z
2020-07-16T03:12:34Z,42.805,6.029,13.2989,4.60000,2470.11,2020-7-16T05:13:21Z
2020-07-16T03:15:38Z,42.805,6.029,13.2990,4.59996,2470.156,2020-7-16T05:16:24Z
2020-07-16T03:18:41Z,42.805,6.029,13.2999,4.60015,2470.156,2020-7-16T05:19:28Z
2020-07-16T03:21:44Z,42.805,6.029,13.2988,4.59995,2470.171,2020-7-16T05:22:31Z
2020-07-16T03:24:48Z,42.805,6.029,13.3009,4.60005,2470.133,2020-7-16T05:25:35Z
2020-07-16T03:27:51Z,42.805,6.029,13.2983,4.60002,2470.11,2020-7-16T05:28:38Z
2020-07-16T03:30:54Z,42.805,6.029,13.2979,4.59996,2470.171,2020-7-16T05:31:41Z
2020-07-16T03:33:58Z,42.805,6.029,13.2991,4.60002,2470.124,2020-7-16T05:34:44Z
2020-07-16T03:37:01Z,42.805,6.029,13.2996,4.60007,2470.11,2020-7-16T05:37:48Z
2020-07-16T03:40:04Z,42.805,6.029,13.2992,4.59991,2470.156,2020-7-16T05:40:51Z
2020-07-16T03:43:07Z,42.805,6.029,13.2976,4.59999,2470.11,2020-7-16T05:43:54Z
2020-07-16T03:46:11Z,42.805,6.029,13.2986,4.60008,2470.11,2020-7-16T05:46:58Z
2020-07-16T03:49:14Z,42.805,6.029,13.2982,4.60003,2470.133,2020-7-16T05:50:01Z
2020-07-16T03:52:18Z,42.805,6.029,13.2990,4.60013,2470.147,2020-7-16T05:53:04Z
2020-07-16T03:55:21Z,42.805,6.029,13.2998,4.60019,2470.133,2020-7-16T05:56:08Z
2020-07-16T03:58:24Z,42.805,6.029,13.2990,4.59998,2470.124,2020-7-16T05:59:11Z
2020-07-16T04:01:27Z,42.805,6.029,13.2997,4.60016,2470.171,2020-7-16T06:02:14Z
2020-07-16T04:04:31Z,42.805,6.029,13.2998,4.60002,2470.147,2020-7-16T06:05:18Z
2020-07-16T04:07:34Z,42.805,6.029,13.2980,4.60002,2470.11,2020-7-16T06:08:21Z
2020-07-16T04:10:37Z,42.805,6.029,13.2980,4.59998,2470.147,2020-7-16T06:11:24Z
2020-07-16T04:13:41Z,42.805,6.029,13.2993,4.59998,2470.147,2020-7-16T06:14:27Z
2020-07-16T04:16:44Z,42.805,6.029,13.2990,4.60007,2470.156,2020-7-16T06:17:31Z
2020-07-16T04:19:47Z,42.805,6.029,13.2975,4.59997,2470.147,2020-7-16T06:20:34Z
2020-07-16T04:22:50Z,42.805,6.029,13.2983,4.60002,2470.171,2020-7-16T06:23:37Z
2020-07-16T04:25:53Z,42.805,6.029,13.2979,4.59996,2470.147,2020-7-16T06:26:40Z
2020-07-16T04:28:57Z,42.805,6.029,13.2980,4.59996,2470.133,2020-7-16T06:29:44Z
2020-07-16T04:32:00Z,42.805,6.029,13.2991,4.59997,2470.133,2020-7-16T06:32:47Z
2020-07-16T04:35:03Z,42.805,6.029,13.2976,4.59999,2470.147,2020-7-16T06:35:50Z
2020-07-16T04:38:06Z,42.805,6.029,13.2974,4.59987,2470.124,2020-7-16T06:38:53Z
2020-07-16T04:41:10Z,42.805,6.029,13.2981,4.59996,2470.124,2020-7-16T06:41:57Z
2020-07-16T04:44:13Z,42.805,6.029,13.2991,4.60003,2470.11,2020-7-16T06:45:00Z
2020-07-16T04:47:16Z,42.805,6.029,13.2979,4.60001,2470.147,2020-7-16T06:48:03Z
2020-07-16T04:50:20Z,42.805,6.029,13.2976,4.59993,2470.133,2020-7-16T06:51:07Z
2020-07-16T04:53:23Z,42.805,6.029,13.2979,4.59990,2470.11,2020-7-16T06:54:10Z
2020-07-16T04:56:26Z,42.805,6.029,13.2974,4.59991,2470.124,2020-7-16T06:57:13Z
2020-07-16T04:59:30Z,42.805,6.029,13.2998,4.60001,2470.133,2020-7-16T07:00:16Z
2020-07-16T05:02:33Z,42.805,6.029,13.2988,4.59996,2470.1,2020-7-16T07:03:20Z
2020-07-16T05:05:36Z,42.805,6.029,13.2976,4.59999,2470.11,2020-7-16T07:06:23Z
2020-07-16T05:08:39Z,42.805,6.029,13.2977,4.59996,2470.133,2020-7-16T07:09:26Z
2020-07-16T05:11:43Z,42.805,6.029,13.2991,4.60001,2470.1,2020-7-16T07:12:29Z
2020-07-16T05:14:46Z,42.805,6.029,13.2979,4.60000,2470.096,2020-7-16T07:15:33Z
2020-07-16T05:17:49Z,42.805,6.029,13.2999,4.59996,2470.133,2020-7-16T07:18:36Z
2020-07-16T05:20:52Z,42.805,6.029,13.2976,4.59989,2470.11,2020-7-16T07:21:39Z
2020-07-16T05:23:56Z,42.805,6.029,13.2979,4.59994,2470.087,2020-7-16T07:24:43Z
2020-07-16T05:26:59Z,42.805,6.029,13.2983,4.59997,2470.133,2020-7-16T07:27:46Z
2020-07-16T05:30:02Z,42.805,6.029,13.2979,4.60003,2470.1,2020-7-16T07:30:49Z
2020-07-16T05:33:05Z,42.805,6.029,13.2979,4.59988,2470.147,2020-7-16T07:33:52Z
2020-07-16T05:36:09Z,42.805,6.029,13.2977,4.59999,2470.11,2020-7-16T07:36:55Z
2020-07-16T05:39:12Z,42.805,6.029,13.2994,4.59999,2470.1,2020-7-16T07:39:59Z
2020-07-16T05:42:15Z,42.805,6.029,13.2984,4.60005,2470.087,2020-7-16T07:43:02Z
2020-07-16T05:45:18Z,42.805,6.029,13.2986,4.60002,2470.124,2020-7-16T07:46:05Z
2020-07-16T05:48:22Z,42.805,6.029,13.2980,4.59991,2470.124,2020-7-16T07:49:09Z
2020-07-16T05:51:25Z,42.805,6.029,13.2976,4.59989,2470.124,2020-7-16T07:52:12Z
2020-07-16T05:54:28Z,42.805,6.029,13.2993,4.59995,2470.087,2020-7-16T07:55:15Z
2020-07-16T05:57:31Z,42.805,6.029,13.2975,4.59991,2470.087,2020-7-16T07:58:18Z
2020-07-16T06:00:34Z,42.805,6.029,13.2976,4.59994,2470.124,2020-7-16T08:01:21Z
2020-07-16T06:03:38Z,42.805,6.029,13.2976,4.59996,2470.063,2020-7-16T08:04:24Z
2020-07-16T06:06:41Z,42.805,6.029,13.2974,4.59994,2470.087,2020-7-16T08:07:28Z
2020-07-16T06:09:44Z,42.805,6.029,13.2976,4.59992,2470.087,2020-7-16T08:10:31Z
2020-07-16T06:12:47Z,42.805,6.029,13.2974,4.59989,2470.1,2020-7-16T08:13:34Z
2020-07-16T06:15:51Z,42.805,6.029,13.2971,4.59995,2470.087,2020-7-16T08:16:38Z
2020-07-16T06:18:54Z,42.805,6.029,13.2974,4.59992,2470.1,2020-7-16T08:19:41Z
2020-07-16T06:21:57Z,42.805,6.029,13.2971,4.59986,2470.1,2020-7-16T08:22:44Z
2020-07-16T06:25:00Z,42.805,6.029,13.2977,4.59981,2470.124,2020-7-16T08:25:47Z
2020-07-16T06:28:04Z,42.805,6.029,13.2976,4.59986,2470.087,2020-7-16T08:28:51Z
2020-07-16T06:31:07Z,42.805,6.029,13.2974,4.59982,2470.063,2020-7-16T08:31:54Z
2020-07-16T06:34:10Z,42.805,6.029,13.2974,4.59999,2470.077,2020-7-16T08:34:57Z
2020-07-16T06:37:14Z,42.805,6.029,13.2974,4.59991,2470.1,2020-7-16T08:38:00Z
2020-07-16T06:40:17Z,42.805,6.029,13.2979,4.59984,2470.087,2020-7-16T08:41:04Z
2020-07-16T06:43:20Z,42.805,6.029,13.2990,4.59988,2470.063,2020-7-16T08:44:07Z
2020-07-16T06:46:24Z,42.805,6.029,13.2993,4.59984,2470.087,2020-7-16T08:47:10Z
2020-07-16T06:49:27Z,42.805,6.029,13.2973,4.59987,2470.063,2020-7-16T08:50:14Z
2020-07-16T06:52:30Z,42.805,6.029,13.2974,4.59991,2470.1,2020-7-16T08:53:17Z
2020-07-16T06:55:33Z,42.805,6.029,13.2977,4.60005,2470.1,2020-7-16T08:56:20Z
2020-07-16T06:58:37Z,42.805,6.029,13.2974,4.59989,2470.077,2020-7-16T08:59:23Z
2020-07-16T07:01:40Z,42.805,6.029,13.2976,4.59984,2470.063,2020-7-16T09:02:27Z
2020-07-16T07:04:43Z,42.805,6.029,13.2974,4.60008,2470.1,2020-7-16T09:05:30Z
2020-07-16T07:07:46Z,42.805,6.029,13.2989,4.59995,2470.026,2020-7-16T09:08:33Z
2020-07-16T07:10:50Z,42.805,6.029,13.2991,4.59996,2470.1,2020-7-16T09:11:36Z
2020-07-16T07:13:53Z,42.805,6.029,13.2976,4.59988,2470.063,2020-7-16T09:14:40Z
2020-07-16T07:16:56Z,42.805,6.029,13.2979,4.59993,2470.077,2020-7-16T09:17:43Z
2020-07-16T07:20:00Z,42.805,6.029,13.2975,4.59982,2470.087,2020-7-16T09:20:47Z
2020-07-16T07:23:03Z,42.805,6.029,13.2976,4.59987,2470.063,2020-7-16T09:23:50Z
2020-07-16T07:26:06Z,42.805,6.029,13.2974,4.59979,2470.077,2020-7-16T09:26:53Z
2020-07-16T07:29:10Z,42.805,6.029,13.2974,4.59987,2470.04,2020-7-16T09:29:56Z
2020-07-16T07:32:13Z,42.805,6.029,13.2976,4.59981,2470.077,2020-7-16T09:33:00Z
2020-07-16T07:35:16Z,42.805,6.029,13.2974,4.59988,2470.053,2020-7-16T09:36:03Z
2020-07-16T07:38:19Z,42.805,6.029,13.2974,4.59981,2470.063,2020-7-16T09:39:06Z
2020-07-16T07:41:22Z,42.805,6.029,13.2975,4.59997,2470.017,2020-7-16T09:42:09Z
2020-07-16T07:44:26Z,42.805,6.029,13.2975,4.59989,2470.04,2020-7-16T09:45:13Z
2020-07-16T07:47:29Z,42.805,6.029,13.2976,4.59982,2470.063,2020-7-16T09:48:16Z
2020-07-16T07:50:32Z,42.805,6.029,13.2971,4.59981,2470.04,2020-7-16T09:51:19Z
2020-07-16T07:53:36Z,42.805,6.029,13.2980,4.59990,2470.053,2020-7-16T09:54:23Z
2020-07-16T07:56:39Z,42.805,6.029,13.2977,4.59984,2470.053,2020-7-16T09:57:26Z
2020-07-16T07:59:42Z,42.805,6.029,13.2986,4.59999,2470.017,2020-7-16T10:00:29Z
2020-07-16T08:02:45Z,42.805,6.029,13.2976,4.59994,2470.053,2020-7-16T10:03:32Z
2020-07-16T08:05:49Z,42.805,6.029,13.2978,4.59991,2470.04,2020-7-16T10:06:35Z
2020-07-16T08:08:52Z,42.805,6.029,13.2977,4.59985,2470.04,2020-7-16T10:09:39Z
2020-07-16T08:11:55Z,42.805,6.029,13.2976,4.59978,2470.017,2020-7-16T10:12:42Z
2020-07-16T08:14:58Z,42.805,6.029,13.2974,4.59980,2470.053,2020-7-16T10:15:45Z
2020-07-16T08:18:02Z,42.805,6.029,13.2974,4.59983,2470.017,2020-7-16T10:18:48Z
2020-07-16T08:21:05Z,42.805,6.029,13.2984,4.59981,2470.04,2020-7-16T10:21:52Z
2020-07-16T08:24:08Z,42.805,6.029,13.2978,4.59991,2470.04,2020-7-16T10:24:55Z
2020-07-16T08:27:11Z,42.805,6.029,13.2977,4.59996,2470.04,2020-7-16T10:27:58Z
2020-07-16T08:30:15Z,42.805,6.029,13.2975,4.59983,2470.077,2020-7-16T10:31:01Z
2020-07-16T08:33:18Z,42.805,6.029,13.2974,4.59978,2470.04,2020-7-16T10:34:05Z
2020-07-16T08:36:21Z,42.805,6.029,13.2972,4.59979,2470.053,2020-7-16T10:37:08Z
2020-07-16T08:39:24Z,42.805,6.029,13.2976,4.59981,2470.077,2020-7-16T10:40:11Z
2020-07-16T08:42:28Z,42.805,6.029,13.2973,4.59984,2470.053,2020-7-16T10:43:14Z
2020-07-16T08:45:31Z,42.805,6.029,13.2974,4.59981,2470.003,2020-7-16T10:46:18Z
2020-07-16T08:48:34Z,42.805,6.029,13.2978,4.59995,2470.063,2020-7-16T10:49:21Z
2020-07-16T08:51:37Z,42.805,6.029,13.2975,4.59979,2470.03,2020-7-16T10:52:24Z
2020-07-16T08:54:41Z,42.805,6.029,13.2974,4.59980,2470.04,2020-7-16T10:55:27Z
2020-07-16T08:57:44Z,42.805,6.029,13.2972,4.59980,2470.03,2020-7-16T10:58:31Z
2020-07-16T09:00:47Z,42.805,6.029,13.2975,4.59981,2470.04,2020-7-16T11:01:34Z
2020-07-16T09:03:51Z,42.805,6.029,13.2975,4.59978,2470.007,2020-7-16T11:04:38Z
2020-07-16T09:06:54Z,42.805,6.029,13.2974,4.59980,2470.017,2020-7-16T11:07:41Z
2020-07-16T09:09:57Z,42.805,6.029,13.2974,4.59981,2470.017,2020-7-16T11:10:44Z
2020-07-16T09:13:00Z,42.805,6.029,13.2976,4.59996,2470.007,2020-7-16T11:13:47Z
2020-07-16T09:16:04Z,42.805,6.029,13.2976,4.59985,2470.03,2020-7-16T11:16:50Z
2020-07-16T09:19:07Z,42.805,6.029,13.2975,4.59978,2470.053,2020-7-16T11:19:54Z
2020-07-16T09:22:10Z,42.805,6.029,13.2979,4.59990,2470.03,2020-7-16T11:22:57Z
2020-07-16T09:25:13Z,42.805,6.029,13.2972,4.59982,2469.97,2020-7-16T11:26:00Z
2020-07-16T09:28:17Z,42.805,6.029,13.2979,4.59986,2470.053,2020-7-16T11:29:04Z
2020-07-16T09:31:20Z,42.805,6.029,13.2977,4.59981,2469.993,2020-7-16T11:32:07Z
2020-07-16T09:34:23Z,42.805,6.029,13.2980,4.59984,2470.017,2020-7-16T11:35:10Z
2020-07-16T09:37:27Z,42.805,6.029,13.2977,4.59992,2470.03,2020-7-16T11:38:13Z
2020-07-16T09:40:30Z,42.805,6.029,13.2974,4.59996,2469.993,2020-7-16T11:41:17Z
2020-07-16T09:43:33Z,42.805,6.029,13.2974,4.59981,2470.017,2020-7-16T11:44:20Z
2020-07-16T09:46:36Z,42.805,6.029,13.2990,4.59999,2470.007,2020-7-16T11:47:23Z
2020-07-16T09:49:40Z,42.805,6.029,13.2977,4.60005,2470.007,2020-7-16T11:50:26Z
2020-07-16T09:52:43Z,42.805,6.029,13.2979,4.59996,2470.017,2020-7-16T11:53:30Z
2020-07-16T09:55:46Z,42.805,6.029,13.2973,4.59993,2469.993,2020-7-16T11:56:33Z
2020-07-16T09:58:49Z,42.805,6.029,13.2975,4.59996,2470.017,2020-7-16T11:59:36Z
2020-07-16T10:01:53Z,42.805,6.029,13.2979,4.59985,2470.017,2020-7-16T12:02:39Z
2020-07-16T10:04:56Z,42.805,6.029,13.2976,4.59998,2470.03,2020-7-16T12:05:43Z
2020-07-16T10:07:59Z,42.805,6.029,13.2974,4.59993,2470.03,2020-7-16T12:08:46Z
2020-07-16T10:11:03Z,42.805,6.029,13.2979,4.59995,2469.993,2020-7-16T12:11:49Z
2020-07-16T10:14:06Z,42.805,6.029,13.2976,4.59995,2469.993,2020-7-16T12:14:53Z
2020-07-16T10:17:09Z,42.805,6.029,13.2980,4.59992,2469.993,2020-7-16T12:17:56Z
2020-07-16T10:20:12Z,42.805,6.029,13.2974,4.60011,2470.017,2020-7-16T12:20:59Z
2020-07-16T10:23:16Z,42.805,6.029,13.2980,4.60009,2470.053,2020-7-16T12:24:02Z
2020-07-16T10:26:19Z,42.805,6.029,13.2976,4.59986,2469.984,2020-7-16T12:27:06Z
2020-07-16T10:29:22Z,42.805,6.029,13.2979,4.59991,2470.04,2020-7-16T12:30:09Z
2020-07-16T10:32:25Z,42.805,6.029,13.2979,4.59995,2469.993,2020-7-16T12:33:12Z
2020-07-16T10:35:28Z,42.805,6.029,13.2978,4.59990,2470.017,2020-7-16T12:36:15Z
2020-07-16T10:38:32Z,42.805,6.029,13.2977,4.60008,2470.017,2020-7-16T12:39:19Z
2020-07-16T10:41:35Z,42.805,6.029,13.3003,4.60002,2469.993,2020-7-16T12:42:22Z
2020-07-16T10:44:39Z,42.805,6.029,13.2979,4.60001,2470.03,2020-7-16T12:45:25Z
2020-07-16T10:47:42Z,42.805,6.029,13.3000,4.60008,2470.017,2020-7-16T12:48:29Z
2020-07-16T10:50:45Z,42.805,6.029,13.2978,4.60010,2470.017,2020-7-16T12:51:32Z
2020-07-16T10:53:48Z,42.805,6.029,13.2988,4.59996,2469.993,2020-7-16T12:54:35Z
2020-07-16T10:56:52Z,42.805,6.029,13.2978,4.60001,2469.993,2020-7-16T12:57:38Z
2020-07-16T10:59:55Z,42.805,6.029,13.2980,4.60001,2470.017,2020-7-16T13:00:42Z
2020-07-16T11:02:58Z,42.805,6.029,13.2981,4.60003,2469.993,2020-7-16T13:03:45Z
2020-07-16T11:06:01Z,42.805,6.029,13.2983,4.60001,2470.03,2020-7-16T13:06:48Z
2020-07-16T11:09:05Z,42.805,6.029,13.2980,4.60011,2469.984,2020-7-16T13:09:52Z
2020-07-16T11:12:08Z,42.805,6.029,13.2989,4.59988,2470.007,2020-7-16T13:12:55Z
2020-07-16T11:15:11Z,42.805,6.029,13.2977,4.59981,2469.993,2020-7-16T13:15:58Z
2020-07-16T11:18:14Z,42.805,6.029,13.2979,4.59997,2470.017,2020-7-16T13:19:01Z
2020-07-16T11:21:18Z,42.805,6.029,13.2974,4.59995,2470.007,2020-7-16T13:22:05Z
2020-07-16T11:24:21Z,42.805,6.029,13.2998,4.60021,2469.993,2020-7-16T13:25:08Z
2020-07-16T11:27:25Z,42.805,6.029,13.2981,4.60000,2470.017,2020-7-16T13:28:12Z
2020-07-16T11:30:28Z,42.805,6.029,13.2981,4.59999,2470.017,2020-7-16T13:31:15Z
2020-07-16T11:33:31Z,42.805,6.029,13.2979,4.59996,2470.017,2020-7-16T13:34:18Z
2020-07-16T11:36:35Z,42.805,6.029,13.2979,4.59990,2470.053,2020-7-16T13:37:21Z
2020-07-16T11:39:38Z,42.805,6.029,13.2980,4.60002,2470.03,2020-7-16T13:40:25Z
2020-07-16T11:42:41Z,42.805,6.029,13.2985,4.60011,2470.017,2020-7-16T13:43:28Z
2020-07-16T11:45:44Z,42.805,6.029,13.2986,4.60003,2470.03,2020-7-16T13:46:31Z
2020-07-16T11:48:48Z,42.805,6.029,13.2991,4.59999,2470.03,2020-7-16T13:49:35Z
2020-07-16T11:51:51Z,42.805,6.029,13.2991,4.60002,2470.017,2020-7-16T13:52:38Z
2020-07-16T11:54:54Z,42.805,6.029,13.2979,4.59997,2470.04,2020-7-16T13:55:41Z
2020-07-16T11:57:58Z,42.805,6.029,13.2993,4.59998,2469.97,2020-7-16T13:58:44Z
2020-07-16T12:01:01Z,42.805,6.029,13.2982,4.60000,2469.993,2020-7-16T14:01:48Z
2020-07-16T12:04:04Z,42.805,6.029,13.2993,4.59999,2470.007,2020-7-16T14:04:51Z
2020-07-16T12:07:07Z,42.805,6.029,13.2998,4.60009,2470.017,2020-7-16T14:07:54Z
2020-07-16T12:10:11Z,42.805,6.029,13.2996,4.60002,2470.017,2020-7-16T14:10:57Z
2020-07-16T12:13:14Z,42.805,6.029,13.2990,4.60004,2470.03,2020-7-16T14:14:01Z
2020-07-16T12:16:17Z,42.805,6.029,13.2988,4.60008,2470.017,2020-7-16T14:17:04Z
2020-07-16T12:19:20Z,42.805,6.029,13.3009,4.60006,2469.993,2020-7-16T14:20:07Z
2020-07-16T12:22:24Z,42.805,6.029,13.2977,4.59995,2470.04,2020-7-16T14:23:11Z
2020-07-16T12:25:27Z,42.805,6.029,13.2996,4.60003,2470.017,2020-7-16T14:26:14Z
2020-07-16T12:28:30Z,42.805,6.029,13.2994,4.60002,2470.053,2020-7-16T14:29:17Z
2020-07-16T12:31:33Z,42.805,6.029,13.2986,4.60014,2470.017,2020-7-16T14:32:20Z
2020-07-16T12:34:37Z,42.805,6.029,13.3009,4.60005,2470.04,2020-7-16T14:35:23Z
2020-07-16T12:37:40Z,42.805,6.029,13.3000,4.60006,2470.03,2020-7-16T14:38:27Z
2020-07-16T12:40:43Z,42.805,6.029,13.2982,4.60003,2470.017,2020-7-16T14:41:30Z
2020-07-16T12:43:47Z,42.805,6.029,13.2976,4.60001,2470.03,2020-7-16T14:44:33Z
2020-07-16T12:46:50Z,42.805,6.029,13.2986,4.60005,2470.017,2020-7-16T14:47:37Z
2020-07-16T12:49:53Z,42.805,6.029,13.2977,4.59996,2470.03,2020-7-16T14:50:40Z
2020-07-16T12:52:56Z,42.805,6.029,13.2982,4.59994,2470.017,2020-7-16T14:53:43Z
2020-07-16T12:55:59Z,42.805,6.029,13.2978,4.59996,2470.007,2020-7-16T14:56:46Z
2020-07-16T12:59:03Z,42.805,6.029,13.3004,4.60001,2470.04,2020-7-16T14:59:49Z
2020-07-16T13:02:06Z,42.805,6.029,13.2985,4.59999,2470.04,2020-7-16T15:02:53Z
2020-07-16T13:05:09Z,42.805,6.029,13.2990,4.60001,2470.03,2020-7-16T15:05:56Z
2020-07-16T13:08:13Z,42.805,6.029,13.2998,4.60003,2470.017,2020-7-16T15:08:59Z
2020-07-16T13:11:16Z,42.805,6.029,13.2995,4.60016,2470.017,2020-7-16T15:12:03Z
2020-07-16T13:14:19Z,42.805,6.029,13.2993,4.60009,2470.053,2020-7-16T15:15:06Z
2020-07-16T13:17:22Z,42.805,6.029,13.2980,4.59995,2470.03,2020-7-16T15:18:09Z
2020-07-16T13:20:26Z,42.805,6.029,13.2994,4.60006,2470.053,2020-7-16T15:21:12Z
2020-07-16T13:23:29Z,42.805,6.029,13.2986,4.59997,2470.077,2020-7-16T15:24:16Z
2020-07-16T13:26:32Z,42.805,6.029,13.3001,4.60015,2470.03,2020-7-16T15:27:19Z
2020-07-16T13:29:35Z,42.805,6.029,13.2991,4.60003,2470.03,2020-7-16T15:30:22Z
2020-07-16T13:32:38Z,42.805,6.029,13.2998,4.60002,2470.053,2020-7-16T15:33:25Z
2020-07-16T13:35:42Z,42.805,6.029,13.2979,4.60006,2470.04,2020-7-16T15:36:29Z
2020-07-16T13:38:45Z,42.805,6.029,13.2991,4.60007,2470.04,2020-7-16T15:39:32Z
2020-07-16T13:41:48Z,42.805,6.029,13.2989,4.59995,2470.03,2020-7-16T15:42:35Z
2020-07-16T13:44:52Z,42.805,6.029,13.2988,4.59995,2470.04,2020-7-16T15:45:38Z
2020-07-16T13:47:55Z,42.805,6.029,13.2987,4.60001,2470.03,2020-7-16T15:48:42Z
2020-07-16T13:50:58Z,42.805,6.029,13.2990,4.60007,2470.063,2020-7-16T15:51:45Z
2020-07-16T13:54:01Z,42.805,6.029,13.2990,4.60009,2470.077,2020-7-16T15:54:48Z
2020-07-16T13:57:05Z,42.805,6.029,13.2990,4.59999,2470.063,2020-7-16T15:57:51Z
2020-07-16T14:00:08Z,42.805,6.029,13.2995,4.60021,2470.087,2020-7-16T16:00:55Z
2020-07-16T14:03:11Z,42.805,6.029,13.2993,4.60013,2470.04,2020-7-16T16:03:58Z
2020-07-16T14:06:14Z,42.805,6.029,13.3013,4.59994,2470.063,2020-7-16T16:07:01Z
2020-07-16T14:09:18Z,42.805,6.029,13.2990,4.60006,2470.087,2020-7-16T16:10:04Z
2020-07-16T14:12:21Z,42.805,6.029,13.2993,4.60011,2470.11,2020-7-16T16:13:08Z
2020-07-16T14:15:24Z,42.805,6.029,13.2986,4.60009,2470.077,2020-7-16T16:16:11Z
2020-07-16T14:18:27Z,42.805,6.029,13.2982,4.59990,2470.053,2020-7-16T16:19:14Z
2020-07-16T14:21:31Z,42.805,6.029,13.2989,4.59999,2470.073,2020-7-16T16:22:17Z
2020-07-16T14:24:34Z,42.805,6.029,13.2976,4.59994,2470.077,2020-7-16T16:25:21Z
2020-07-16T14:27:37Z,42.805,6.029,13.2986,4.60003,2470.04,2020-7-16T16:28:24Z
2020-07-16T14:30:41Z,42.805,6.029,13.2983,4.60006,2470.087,2020-7-16T16:31:27Z
2020-07-16T14:33:44Z,42.805,6.029,13.2986,4.60011,2470.1,2020-7-16T16:34:31Z
2020-07-16T14:36:47Z,42.805,6.029,13.2979,4.60001,2470.063,2020-7-16T16:37:34Z
2020-07-16T14:39:51Z,42.805,6.029,13.2989,4.60003,2470.087,2020-7-16T16:40:37Z
2020-07-16T14:42:54Z,42.805,6.029,13.2989,4.60009,2470.124,2020-7-16T16:43:41Z
2020-07-16T14:45:57Z,42.805,6.029,13.2994,4.60009,2470.04,2020-7-16T16:46:44Z
2020-07-16T14:49:00Z,42.805,6.029,13.2986,4.60014,2470.1,2020-7-16T16:49:47Z
2020-07-16T14:52:04Z,42.805,6.029,13.2976,4.60009,2470.1,2020-7-16T16:52:51Z
2020-07-16T14:55:07Z,42.805,6.029,13.2997,4.60008,2470.124,2020-7-16T16:55:54Z
2020-07-16T14:58:10Z,42.805,6.029,13.2980,4.60006,2470.1,2020-7-16T16:58:57Z
2020-07-16T15:01:14Z,42.805,6.029,13.2994,4.60001,2470.087,2020-7-16T17:02:01Z
2020-07-16T15:04:17Z,42.805,6.029,13.2985,4.60000,2470.087,2020-7-16T17:05:04Z
2020-07-16T15:07:20Z,42.805,6.029,13.2999,4.60003,2470.087,2020-7-16T17:08:07Z
2020-07-16T15:10:23Z,42.805,6.029,13.2983,4.60011,2470.124,2020-7-16T17:11:10Z
2020-07-16T15:13:27Z,42.805,6.029,13.2983,4.60011,2470.11,2020-7-16T17:14:14Z